Aviano, Italy

9:28 AM CET on January 17, 2018 (GMT +0100)
Aviano Mil

Weather History for LIPA - April, 2014

Change the Weather History Date:

Tuesday, April 29, 2014

  Actual Average Record
Temperature  
Mean Temperature 64 °F -  
Max Temperature 73 °F 70 °F 75 °F (2001)
Min Temperature 56 °F 55 °F 38 °F (2016)
Growing Degree Days 14 (Base 50)    
Moisture  
Dew Point 54 °F    
Average Humidity 71    
Maximum Humidity 94    
Minimum Humidity 43    
Precipitation  
Precipitation 0.16 in - - ()
Sea Level Pressure  
Sea Level Pressure 29.74 in    
Wind  
Wind Speed 7 mph ()    
Max Wind Speed 17 mph    
Max Gust Speed -    
Visibility 6.6 miles    
Events Rain , Thunderstorm    
Averages and records for this station are not official NWS values.
T = Trace of Precipitation, MM = Missing Value Source: Averaged Metar Reports

Daily Weather History Graph

Daily Weather History Graph

Search for Another Location

Airport or City:

Trip Planner

Search our weather history database for the weather conditions in past years. The results will help you decide how hot, cold, wet, or windy it might be!

Date:

Astronomy

Apr. 29, 2014 Rise Set
Actual Time 5:59 AM CEST 8:14 PM CEST
Civil Twilight 5:27 AM CEST 8:47 PM CEST
Nautical Twilight 4:46 AM CEST 9:28 PM CEST
Astronomical Twilight 4:00 AM CEST 10:14 PM CEST
Moon 6:07 AM CEST (4/29) 8:37 PM CEST (4/29)
Length of Visible Light 15h 20m
Length of Day
14h 14m
New Moon, 0% of the Moon is Illuminated
Apr 29
New Moon
May 7
First Quarter
May 14
Full
May 21
Last Quarter
May 28
New

Hourly Weather History & Observations

Time (CEST) Temp. Dew Point Humidity Pressure Visibility Wind Dir Wind Speed Gust Speed Precip Events Conditions
6:55 AM 57.2 °F 53.6 °F 88% 29.71 in 6.2 mi North 3.5 mph - N/A   Mostly Cloudy
7:55 AM 59.0 °F 53.6 °F 82% 29.71 in 6.2 mi WNW 5.8 mph - N/A   Partly Cloudy
8:00 AM 59 °F 54 °F 78% 29.73 in 9 mi WNW 5.8 mph - -   Scattered Clouds
8:55 AM 60.8 °F 55.4 °F 82% 29.71 in 6.2 mi WSW 5.8 mph - N/A   Partly Cloudy
9:55 AM 64.4 °F 55.4 °F 73% 29.74 in 6.2 mi West 6.9 mph - N/A   Partly Cloudy
10:55 AM 66.2 °F 50.0 °F 56% 29.74 in 6.2 mi WSW 8.1 mph - N/A   Partly Cloudy
11:00 AM 67 °F 49 °F 43% 29.75 in 9 mi WSW 8.1 mph - -   Scattered Clouds
11:55 AM 68.0 °F 53.6 °F 60% 29.74 in 6.2 mi SW 9.2 mph - N/A   Partly Cloudy
12:55 PM 69.8 °F 53.6 °F 56% 29.74 in 6.2 mi SW 12.7 mph - N/A   Partly Cloudy
1:55 PM 71.6 °F 55.4 °F 57% 29.74 in 6.2 mi WSW 12.7 mph - N/A   Scattered Clouds
2:00 PM 72 °F 56 °F 47% 29.74 in 9 mi WSW 12.7 mph - -   Scattered Clouds
2:55 PM 69.8 °F 55.4 °F 60% 29.74 in 6.2 mi WSW 12.7 mph - N/A   Scattered Clouds
3:55 PM 71.6 °F 53.6 °F 53% 29.71 in 6.2 mi WSW 13.8 mph - N/A   Partly Cloudy
4:55 PM 69.8 °F 57.2 °F 64% 29.71 in 6.2 mi WSW 11.5 mph - N/A Thunderstorm Thunderstorm
5:00 PM 70 °F 57 °F 53% 29.72 in 5 mi WSW 11.5 mph - - Thunderstorm Thunderstorm
5:08 PM 68.0 °F 55.4 °F 64% 29.74 in 6.2 mi East 17.3 mph - N/A Rain , Thunderstorm Light Thunderstorms and Rain
5:55 PM 59.0 °F 53.6 °F 82% 29.74 in 6.2 mi East 6.9 mph - N/A Rain , Thunderstorm Light Thunderstorms and Rain
6:21 PM 57.2 °F 53.6 °F 88% 29.77 in 6.2 mi West 11.5 mph - N/A Rain , Thunderstorm Thunderstorms and Rain
6:55 PM 57.2 °F 53.6 °F 88% 29.77 in 6.2 mi WNW 11.5 mph - N/A Rain , Thunderstorm Light Thunderstorms and Rain
7:55 PM 57.2 °F 53.6 °F 88% 29.77 in 6.2 mi West 3.5 mph - N/A   Mostly Cloudy
8:00 PM 57 °F 54 °F 88% 29.78 in 9 mi West 3.5 mph - -   Partly Cloudy
8:55 PM 57.2 °F 55.4 °F 94% 29.77 in 6.2 mi Calm Calm - N/A   Scattered Clouds
9:55 PM 57.2 °F 55.4 °F 94% 29.77 in 6.2 mi ESE 2.3 mph - N/A   Scattered Clouds